Výběr kola

Přidat téma
Téma reakcí autor poslední
Výběr HT carbon pro přítelkyni strop 40tis. 9/9 Peter_KL 2.2.20 16:10
Kola Cube... 5/5 Ufik78 1.2.20 15:05
GHOST LECTOR 1 LC 29" 2017 21/21 mischak007 31.1.20 20:04
Kellys Soot 70 - vozí někdo? 23/23 Goob 31.1.20 16:24
Grand Canyon AL SL 9.0 24/24 Paolo1975 28.1.20 21:18
Zahraniční eshopy 7/7 ockokus 28.1.20 18:24
Rada s výběrem kola 25/25 Faba90 27.1.20 20:19
Výběr Ghosta 33/33 Martjur 27.1.20 12:36
Názor na FOCUS WHISTLER 6.9 7/7 hlinikAmatér 26.1.20 07:54
Výběr horského kola 23/23 VMilan 23.1.20 11:15
Rámové patvary 72/72 Lokotka 22.1.20 21:44
(Kola kolem 30) - Procaliber 6 X Superspeed 2.0 8/8 Misapan 22.1.20 20:44
Frog 48 25/25 filous 22.1.20 13:04
Canyon Lux 6.0 vs Kross Earth 3.0 7/7 prupek 22.1.20 11:06
Správná velikost rámu kola - geometrie rámu 3/3 Prazak0 20.1.20 22:28
On One Whippet 2020 správná velikost? 0/0 babovec 20.1.20 17:59
Kolo Rockrider - Decathlon 127/127 Pajalo6 20.1.20 11:56
27,5 nebo 29 182/182 apaccer 20.1.20 09:32
CANYON GRAIL AL 6.0 vs GIANT REVOLT 0 0/0 Speedball 20.1.20 09:20
Horské kolo cca 40.000,- Kč 34/34 Privilegius 19.1.20 20:30
Mechanicke kotoucove brzy na detskem kole 12/12 KoprCZE 19.1.20 09:08
Colnago V3 disc 2020 alebo Trek Emonda SL 6 35/35 Robert Cech 18.1.20 19:53
KROSS Level 11.0 2019 zkušenosti, co vy na to? 1/1 Nickcarter40 18.1.20 19:09
Porovnani kol Trek 8/8 Petulak90 17.1.20 21:54
X Fact Pro Hr. 27,5 nebo Mongoose Tyax 29" Sport 2019 14/14 crown 17.1.20 19:24
Výběr prvního fullu - Giant Trance vs Canyon Spectral 181/181 mat.libor 17.1.20 12:31
Výběr MTB kola do 25 tisíc 23/23 rebelius 16.1.20 18:47
Prosím radu "názor" výběr nového kola 55/55 hlinikAmatér 14.1.20 21:42
MMR 29” 62/62 kario 11.1.20 07:03
Náhrada za Rock Machine Torrent 90 2019 - 29" 25/25 bphot0 10.1.20 19:55
commencal nebo trek poradte?? 1/1 maraspark 10.1.20 18:38
Co zmodernizovat na 15 let starém krosovém kolo? 30/30 Lukas1976 10.1.20 10:40
první silnička 4/4 Jamesf 9.1.20 11:51
SUP XP939 2020 2/2 Kostěj 9.1.20 10:37
BMC Teamelite 03 SLX/XT 2017 3/3 Dejvr1 8.1.20 18:46
Výběr HT 0/0 tekara 8.1.20 10:37
HT 29´´ 2/2 tekara 8.1.20 10:29
Lepší XC kolo 56/56 Marlex1990 7.1.20 14:16
Výběr kola do 25.000 14/14 marie 71 6.1.20 20:35
KTM, Scott nebo Merida 0/0 marie 71 6.1.20 18:02
Horské k 29" 19/L do 15K 20/20 Socirel 5.1.20 06:58
Focus JAM 6.8 SEVEN vs Trance 2 GE 2019 5/5 Peeskle 4.1.20 22:32
Jaké kolo do 15 kKč? 24/24 Lišák 3.1.20 18:06
pomoc s výběrem horského kola 28/28 biostar 3.1.20 09:56
Nové kolo do 25K 5/5 pyotr 2.1.20 15:52
Horské kolo místo Meridy Crossway XT-Edition Lady 4/4 crazy_mind 2.1.20 11:12
Výběr horské 29 vs. gravel - pohodlí, převody atd.. 31/31 Golda 1.1.20 19:27
Celopéro do 200 000 czk 51/51 Hej Ty kokso 1.1.20 17:05
Trailový hardtail do 25000 kč 17/17 HT Adam 30.12.19 22:27
Ghost lector nebo specialized 8/8 Viki 30.12.19 18:35